Balykshi

Kazakhstan     47˚04′52″N   51˚52′50″E
temp.,
°C
wind,
m/s
gust,
m/s
humid.,
%
clouds,
%
prec.,
mm/h
press.,
hPa
HPBL,
m
29 november, sun
sun2923:00se612760 0.0 1038238
02:00−1˚se612770 0.0 1039253
05:00−1˚ese611721 0.0 1040231
08:00−1˚ese7136936 0.0 1039271
11:00+1˚se9145330 0.0 1041482
14:00+5˚se10134820 0.0 1040659
17:00+4˚ese8135941 0.0 1040686
20:00+2˚ese8147096 0.0 1040445
30 november, mon
mon3023:00+2˚ese8157598 0.0 1041415
02:00+1˚ese81478100 0.0 1041491
05:00ese81474100 0.0 1041460
08:00−1˚ese81474100 0.0 1040429
11:00ese91363100 0.0 1041488
14:00+1˚ese81150100 0.0 1040625
17:00+1˚e9124782 0.0 1039596
20:00−2˚e9146049 0.0 1039467
1 december, tue
tue123:00−4˚e8136649 0.0 1039428
02:00−4˚e8136515 0.0 1038415
05:00−5˚e7126755 0.0 1037431
08:00−6˚e7136834 0.0 1037386
11:00−4˚e9125724 0.0 1037445
14:00−1˚e8114345 0.0 1036540
17:00−2˚e8114538 0.0 1035578
20:00−5˚e71254100 0.0 1036435
2 december, wed
wed223:00−6˚e6116397 0.0 1036355
02:00−7˚ene6106710 0.0 1036280
05:00−8˚ene59707 0.0 1035246
08:00−9˚ene59721 0.0 1036217
11:00−8˚ene68620 0.0 1036285
14:00−3˚ene56460 0.0 1035454
17:00−4˚ne57460 0.0 1034443
20:00−7˚ne48580 0.0 1035190
3 december, thu
thu323:00−8˚ene46670 0.0 1035148
02:00−9˚ne46730 0.0 1035135
05:00−10˚ne45750 0.0 1035102
08:00−11˚ne46800 0.0 1035133
11:00−9˚ne46650 0.0 1037292
14:00−5˚ne55470 0.0 1036478
17:00−5˚ne56460 0.0 1036407
20:00−8˚nne46590 0.0 1036120